Temp
3 3 4 4 4 4 5 5 5 5 5 5 5 5 5 5 5 6 6 6 7 7 7 7 7 7 8 8 9 9 9 9 9 9 9 10 10 10
1 2 2 2 3 3 3 3 3 3 3 4 3 3 4 4 4 5 5 6 6 6 7 7 7 8 8 8 9 9 9 9 9 9 10 10 10 10
1 0 1 1 1 1 2 2 2 1 2 2 3 3 3 3 4 4 5 5 6 6 6 7 7 8 8 8 9 9 9 9 9 9 9 9 10 10
-1 -0 -0 -0 -0 -0 0 0 0 0 0 1 2 3 3 3 4 4 5 5 5 6 6 6 7 7 8 8 9 9 8 8 8 9 9 9 9 9
-2 -1 -1 -1 -1 -1 -1 -1 -1 -1 -1 -0 0 1 2 2 3 3 4 5 5 5 5 6 6 7 7 7 7 7 7 8 8 8 8 9 9 9
-2 -2 -2 -2 -2 -2 -2 -2 -2 -2 -2 -2 -1 -0 -0 1 1 2 4 3 5 5 5 6 6 6 6 6 6 6 7 7 7 7 8 8 9 9
-3 -2 -2 -2 -2 -2 -2 -3 -3 -3 -3 -3 -2 -1 -1 -0 -0 -0 1 2 4 4 5 5 5 5 5 5 6 6 5 6 6 7 7 7 8 8
-3 -3 -3 -3 -3 -3 -3 -3 -4 -4 -4 -4 -4 -3 -2 -2 -1 -2 -2 -1 -0 2 2 4 4 4 5 5 5 4 5 5 5 6 6 6 6 7
-4 -4 -4 -4 -4 -4 -4 -5 -5 -5 -5 -6 -5 -5 -5 -4 -4 -3 -4 -4 -3 -2 -1 2 2 3 3 3 3 3 3 4 4 4 4 4 4 5
-5 -5 -5 -5 -5 -5 -5 -5 -5 -5 -5 -6 -6 -6 -6 -6 -7 -7 -5 -4 -4 -4 -3 -2 1 1 2 2 2 3 2 2 2 1 1 2 3 3
-5 -5 -5 -5 -5 -5 -6 -6 -5 -5 -6 -7 -7 -8 -7 -8 -8 -7 -6 -6 -5 -4 -3 -3 -3 -2 -0 1 1 1 1 -0 0 1 0 0 1 1
-6 -6 -6 -6 -6 -6 -6 -6 -6 -5 -6 -6 -7 -6 -8 -7 -7 -7 -7 -8 -8 -8 -6 -6 -6 -6 -5 -2 -1 -3 -1 0 1 0 0 0 1 1
-6 -6 -6 -7 -7 -7 -7 -7 -7 -8 -6 -7 -8 -7 -8 -7 -7 -8 -8 -9 -8 -8 -6 -8 -8 -8 -9 -9 -6 -3 -1 -0 0 0 0 -0 -0 -1
-6 -7 -7 -7 -7 -7 -7 -7 -7 -7 -8 -8 -8 -8 -8 -8 -8 -8 -8 -8 -8 -8 -7 -8 -10 -9 -9 -8 -8 -5 -2 -2 -1 -1 -1 -2 -1 -1
-8 -8 -8 -8 -7 -7 -8 -7 -8 -8 -8 -8 -8 -8 -8 -8 -8 -8 -8 -8 -8 -8 -8 -8 -9 -9 -10 -9 -8 -6 -4 -3 -3 -3 -3 -3 -2 -1
-10 -10 -10 -9 -9 -9 -8 -9 -9 -9 -9 -9 -9 -9 -9 -9 -9 -9 -9 -9 -8 -7 -8 -9 -9 -10 -9 -8 -8 -6 -5 -7 -4 -5 -5 -4 -3 -3
-9 -10 -10 -10 -10 -10 -10 -10 -10 -10 -10 -10 -10 -10 -10 -10 -10 -10 -10 -10 -10 -9 -8 -9 -10 -10 -9 -8 -7 -6 -6 -6 -6 -6 -6 -6 -5 -3
-10 -10 -10 -10 -10 -10 -10 -10 -11 -11 -11 -11 -11 -11 -11 -11 -11 -11 -11 -11 -11 -10 -10 -11 -10 -10 -8 -5 -7 -7 -7 -8 -8 -7 -6 -7 -7 -4
-10 -10 -10 -10 -10 -10 -11 -11 -11 -12 -12 -12 -12 -12 -12 -13 -13 -12 -12 -12 -12 -11 -11 -12 -12 -12 -12 -11 -7 -8 -10 -9 -8 -7 -7 -8 -8 -5
-11 -11 -11 -11 -11 -11 -11 -11 -12 -13 -13 -13 -13 -13 -13 -13 -13 -13 -13 -13 -12 -12 -12 -12 -12 -13 -14 -14 -12 -6 -8 -9 -10 -8 -7 -8 -6 -4
-10 -11 -11 -11 -11 -12 -12 -12 -13 -13 -13 -13 -14 -14 -14 -14 -14 -14 -14 -14 -14 -13 -12 -12 -12 -12 -13 -12 -10 -8 -7 -8 -9 -9 -8 -9 -8 -6
-11 -11 -11 -12 -12 -12 -12 -13 -14 -14 -14 -14 -14 -14 -14 -14 -14 -14 -14 -14 -14 -14 -13 -13 -13 -12 -12 -12 -12 -10 -9 -7 -7 -7 -7 -9 -10 -12
-11 -11 -11 -12 -12 -13 -13 -13 -14 -14 -14 -14 -14 -14 -14 -14 -15 -15 -15 -15 -15 -14 -14 -13 -12 -12 -12 -12 -12 -11 -10 -9 -8 -6 -5 -6 -7 -7
Height
1516 1516 1515 1515 1517 1517 1517 1520 1522 1524 1523 1524 1525 1524 1525 1524 1525 1524 1523 1524 1523 1523 1524 1523 1523 1524 1521 1522 1521 1522 1521 1522 1522 1522 1522 1522 1522 1522
1514 1512 1513 1514 1513 1515 1514 1515 1518 1522 1522 1520 1520 1521 1520 1520 1520 1520 1520 1519 1518 1518 1517 1516 1517 1517 1516 1516 1515 1515 1515 1515 1513 1513 1513 1513 1512 1512
1509 1509 1510 1511 1510 1512 1512 1512 1515 1518 1517 1516 1517 1517 1517 1516 1517 1516 1515 1514 1513 1513 1511 1509 1509 1509 1508 1508 1507 1508 1508 1508 1506 1505 1504 1503 1502 1502
1508 1507 1508 1509 1510 1509 1509 1510 1512 1512 1513 1512 1512 1512 1512 1513 1511 1511 1509 1508 1507 1507 1506 1503 1502 1502 1500 1500 1499 1499 1498 1498 1496 1495 1495 1494 1493 1492
1507 1505 1509 1506 1508 1507 1507 1508 1508 1509 1508 1508 1508 1507 1506 1507 1505 1504 1503 1501 1503 1501 1498 1497 1495 1495 1494 1493 1492 1490 1489 1488 1488 1487 1485 1484 1483 1482
1506 1504 1506 1505 1505 1504 1504 1507 1505 1505 1506 1505 1504 1504 1500 1501 1498 1496 1495 1496 1495 1494 1491 1490 1489 1489 1488 1486 1485 1483 1480 1479 1476 1476 1474 1473 1471 1470
1503 1503 1504 1503 1503 1503 1504 1503 1503 1501 1503 1502 1501 1498 1497 1494 1494 1492 1489 1487 1487 1486 1483 1484 1482 1483 1481 1480 1478 1476 1474 1471 1466 1465 1465 1463 1461 1459
1502 1501 1501 1501 1501 1500 1498 1500 1500 1500 1498 1499 1496 1494 1494 1491 1491 1487 1486 1482 1481 1478 1476 1475 1473 1473 1473 1471 1469 1466 1464 1462 1459 1456 1455 1453 1450 1449
1498 1498 1497 1498 1498 1496 1496 1497 1497 1496 1495 1495 1492 1491 1489 1489 1487 1485 1483 1478 1477 1475 1472 1462 1465 1463 1462 1462 1460 1457 1454 1453 1452 1450 1447 1444 1441 1439
1494 1494 1494 1494 1494 1493 1492 1493 1492 1490 1491 1490 1489 1487 1486 1484 1484 1481 1478 1472 1472 1471 1470 1457 1457 1454 1454 1453 1451 1448 1446 1444 1443 1441 1438 1435 1432 1429
1489 1489 1489 1489 1489 1489 1487 1486 1486 1486 1486 1486 1484 1483 1481 1480 1479 1475 1474 1471 1466 1465 1466 1457 1451 1445 1445 1444 1441 1440 1439 1441 1438 1434 1429 1425 1421 1417
1484 1485 1485 1485 1484 1484 1482 1482 1481 1481 1481 1480 1478 1476 1476 1475 1473 1471 1469 1466 1465 1461 1461 1456 1449 1445 1436 1433 1435 1438 1439 1436 1429 1425 1420 1415 1411 1406
1478 1479 1480 1480 1479 1479 1478 1477 1477 1477 1475 1474 1472 1472 1471 1469 1468 1466 1465 1463 1461 1457 1457 1454 1446 1445 1442 1430 1423 1424 1425 1421 1417 1414 1410 1406 1402 1399
1473 1474 1474 1475 1475 1474 1473 1473 1472 1471 1470 1469 1468 1466 1465 1464 1463 1461 1460 1458 1456 1453 1453 1451 1443 1442 1436 1427 1419 1416 1416 1412 1408 1403 1400 1397 1394 1390
1467 1469 1469 1469 1469 1469 1469 1468 1468 1467 1466 1465 1463 1462 1461 1460 1458 1456 1454 1452 1451 1449 1447 1445 1440 1436 1432 1425 1415 1410 1406 1400 1400 1396 1392 1387 1382 1379
1460 1462 1463 1463 1464 1465 1464 1464 1464 1463 1462 1461 1460 1459 1457 1456 1455 1452 1449 1447 1444 1443 1441 1438 1434 1429 1424 1420 1413 1405 1405 1398 1394 1389 1382 1377 1372 1370
1453 1455 1457 1458 1459 1460 1460 1460 1460 1459 1459 1458 1457 1456 1454 1452 1450 1448 1445 1441 1438 1435 1433 1430 1427 1422 1418 1413 1406 1403 1397 1393 1388 1381 1375 1367 1364 1361
1444 1447 1450 1452 1454 1455 1456 1456 1456 1455 1455 1454 1454 1452 1451 1448 1445 1443 1441 1437 1433 1430 1427 1424 1419 1414 1410 1407 1403 1397 1392 1386 1381 1376 1371 1359 1351 1350
1437 1442 1445 1447 1448 1449 1450 1452 1452 1452 1452 1452 1451 1449 1448 1445 1442 1439 1437 1434 1429 1426 1424 1422 1417 1411 1405 1399 1394 1391 1387 1382 1374 1368 1363 1357 1346 1340
1431 1436 1439 1442 1443 1444 1445 1447 1448 1448 1449 1449 1448 1447 1446 1444 1441 1438 1434 1431 1426 1422 1421 1420 1415 1409 1405 1399 1390 1384 1385 1376 1370 1361 1354 1348 1343 1336
1428 1432 1435 1436 1438 1440 1441 1443 1444 1445 1446 1447 1446 1445 1445 1443 1440 1436 1433 1429 1424 1421 1417 1415 1412 1407 1402 1396 1389 1381 1378 1377 1370 1360 1351 1340 1331 1322
1424 1428 1430 1432 1433 1435 1437 1439 1441 1442 1443 1444 1444 1444 1443 1441 1438 1434 1431 1426 1422 1419 1415 1412 1407 1402 1398 1393 1386 1380 1371 1366 1365 1359 1354 1346 1335 1323
1420 1424 1425 1427 1429 1432 1434 1436 1438 1439 1440 1441 1441 1441 1440 1439 1436 1433 1429 1425 1421 1417 1412 1407 1403 1398 1395 1390 1384 1377 1370 1362 1353 1345 1346 1341 1334 1327
Wind_Speed
12 12 12 12 13 13 13 13 13 12 14 17 17 18 19 18 19 19 21 22 22 23 23 23 23 24 24 25 26 28 30 31 33 33 35 36 37 37
10 10 11 11 12 12 12 13 14 16 13 12 16 19 18 19 21 22 23 24 24 26 27 27 28 28 28 28 29 30 30 30 30 31 32 35 38 40
9 9 10 10 11 12 12 12 14 17 19 20 19 19 20 22 24 26 27 27 28 29 29 30 31 32 32 31 32 33 33 33 32 33 33 34 35 36
9 9 10 11 11 11 12 13 14 16 19 21 21 21 23 24 26 27 27 27 28 28 28 29 31 32 33 34 34 35 35 36 36 37 38 37 38 38
9 9 11 10 12 12 12 14 15 16 18 21 24 23 23 23 25 25 26 27 27 26 27 29 29 30 31 31 32 34 35 36 37 39 40 40 41 42
9 9 10 11 11 12 12 13 14 16 18 20 22 24 25 24 26 27 27 26 28 25 26 29 28 28 26 27 29 32 33 34 36 38 40 42 44 46
10 10 11 11 12 13 14 14 15 16 18 19 21 23 24 25 26 28 30 32 31 28 27 24 25 27 27 28 29 30 31 33 36 38 40 41 43 46
11 11 12 13 14 15 15 15 16 16 17 20 21 23 24 25 27 29 31 32 33 27 29 33 31 30 28 28 27 26 27 30 31 34 36 38 40 42
13 13 13 13 15 14 15 16 17 17 18 21 24 23 26 25 27 28 27 28 31 33 33 40 32 32 31 29 26 28 29 28 28 28 30 32 34 37
15 15 14 14 14 15 16 17 17 18 19 20 22 23 23 22 23 25 29 31 33 32 26 38 35 35 32 32 32 29 25 23 19 16 31 33 33 36
17 16 16 16 16 17 18 19 20 19 20 20 21 23 21 20 22 25 26 28 31 30 25 29 31 40 38 33 25 23 16 9 24 39 35 35 36 38
19 17 17 17 17 18 19 20 22 21 21 22 21 20 19 20 21 23 24 24 25 27 18 28 35 33 33 29 11 16 33 28 29 30 31 32 33 38
21 19 18 17 18 19 20 19 19 18 20 19 20 20 20 20 18 18 19 22 24 26 25 26 33 33 29 39 41 41 36 35 35 33 32 30 29 30
23 20 20 19 18 19 19 17 17 19 18 19 18 18 18 18 19 19 20 21 22 26 25 24 31 30 32 39 45 44 40 39 38 37 31 34 35 35
23 20 20 20 19 17 17 18 15 16 17 17 17 18 18 19 20 20 20 21 21 22 22 22 25 27 29 35 42 44 44 44 32 35 38 37 38 37
24 21 21 21 18 16 16 16 15 15 16 16 16 16 16 17 18 18 19 20 21 19 18 19 21 24 29 31 36 41 37 38 37 37 38 40 40 40
26 25 25 23 21 19 17 15 15 14 14 13 14 15 16 17 18 18 18 19 20 22 22 21 21 24 27 30 35 32 29 32 31 39 40 44 43 39
30 29 26 25 23 20 17 15 13 12 12 12 13 15 17 17 18 17 18 19 20 21 23 23 26 28 28 26 22 29 29 33 39 36 37 43 47 41
29 27 26 23 19 17 15 13 12 10 10 10 12 13 13 13 15 16 18 19 19 20 21 22 24 25 28 32 36 26 32 36 35 36 37 39 43 43
30 23 20 17 17 15 13 12 10 8 7 8 8 9 11 11 13 15 17 19 19 21 22 20 20 23 23 26 35 35 28 33 33 37 40 39 37 37
30 23 18 18 17 15 13 11 10 8 6 5 4 5 9 11 13 16 18 19 20 21 22 21 20 20 23 25 29 34 28 23 26 31 34 37 40 43
29 23 18 18 17 15 13 12 11 10 7 5 3 5 10 14 17 20 21 22 22 23 23 22 21 20 21 24 29 30 33 31 24 23 22 22 28 31
29 20 19 17 16 15 14 13 12 12 9 7 5 6 11 15 19 22 24 22 24 24 24 24 21 20 21 24 26 28 29 31 33 34 23 21 23 21
Wind_Direction
246 246 245 241 241 240 236 239 242 242 232 235 237 242 246 252 258 261 263 266 268 269 270 272 274 275 275 274 273 273 272 271 270 268 265 263 261 260
244 246 249 251 249 251 246 241 246 250 247 238 240 246 254 259 265 268 270 271 273 276 278 279 279 277 275 276 276 275 275 275 274 272 269 267 265 263
258 256 255 256 256 253 253 252 250 254 259 253 253 258 262 267 271 275 279 280 280 280 281 283 282 282 281 280 280 279 278 276 275 274 273 273 272 270
265 263 264 259 259 260 259 259 258 261 267 273 270 266 268 273 277 278 278 280 280 280 281 280 280 281 281 280 280 281 280 279 276 274 273 273 272 271
277 273 268 269 268 267 265 264 264 266 271 275 281 284 283 283 280 281 283 282 283 283 283 281 280 279 280 281 280 279 278 279 279 277 277 277 276 275
284 284 285 283 281 279 277 275 273 274 275 278 282 288 291 293 296 298 291 291 288 288 285 285 285 284 284 283 282 281 281 281 280 278 276 276 276 275
282 283 283 286 285 284 281 278 279 282 284 285 286 290 294 299 303 304 302 300 298 299 292 287 285 287 289 286 284 283 282 279 277 277 277 276 275 275
274 278 281 283 281 283 287 285 282 281 287 291 293 293 297 301 302 303 304 307 309 300 299 294 298 299 297 290 289 287 280 278 278 279 280 281 280 279
271 275 278 279 282 282 281 280 280 281 281 283 287 294 297 300 298 299 300 299 298 302 308 301 307 303 300 301 300 293 290 289 287 284 282 280 279 279
266 272 277 279 281 282 281 281 282 285 285 282 285 291 291 294 295 292 295 298 299 303 312 304 309 303 302 303 302 298 295 292 284 285 301 296 290 287
264 270 276 280 284 285 285 285 287 288 287 288 286 285 286 284 284 291 294 297 301 302 312 301 306 306 308 308 302 300 298 282 291 300 297 294 291 288
261 267 273 279 282 285 285 288 290 294 291 287 287 287 285 287 289 287 290 292 297 307 313 306 306 316 317 312 311 285 299 303 298 300 299 294 291 288
257 262 269 274 279 284 287 286 290 289 289 295 293 291 291 291 289 287 286 289 292 290 305 301 300 306 303 304 306 310 318 318 315 314 309 304 300 301
252 257 264 271 276 281 288 288 281 286 293 291 295 297 296 295 295 292 291 290 291 293 297 296 293 300 300 302 303 309 318 316 317 315 315 310 305 303
250 255 261 268 275 285 290 287 288 284 289 291 293 294 297 297 297 297 296 294 293 292 295 292 292 297 295 297 302 309 317 319 318 316 315 313 312 310
243 250 259 266 275 287 289 285 284 283 283 286 290 294 298 304 307 308 306 303 301 300 299 299 298 298 299 299 302 307 314 308 315 319 319 317 317 319
236 240 251 261 272 283 282 280 280 278 282 289 293 299 305 310 314 315 314 313 313 314 312 313 310 307 304 306 305 312 315 313 319 324 322 317 317 320
232 235 243 254 265 274 272 272 272 278 285 292 297 304 310 314 319 323 322 320 319 320 319 323 322 319 314 311 318 321 325 322 325 321 318 321 323 329
230 234 242 250 257 257 258 260 266 275 284 292 301 308 317 324 325 328 328 326 324 323 326 331 329 328 325 322 320 330 328 327 323 323 326 324 321 329
232 233 238 245 252 249 246 249 253 261 274 295 309 321 330 332 331 333 335 333 330 329 329 330 330 329 326 319 315 324 335 335 331 324 326 325 324 327
221 228 239 255 248 238 232 230 230 237 260 279 300 332 342 346 350 348 343 341 335 329 327 331 334 329 323 316 320 326 330 337 331 329 333 328 331 332
220 223 253 248 237 228 224 221 222 227 236 241 273 329 345 348 349 350 348 343 340 335 328 331 333 330 335 331 327 330 330 332 332 335 339 335 330 310
217 240 252 234 225 220 220 222 222 224 231 240 270 318 335 343 345 346 344 341 336 334 332 332 334 340 341 337 335 336 337 340 341 339 347 349 342 333